User: anonymous   Login
Location: Columbia
(38.9520°N, 92.3340°W)
Time: 16:48:43
(UTC-05:00)
Language:

Cosmos 1633 - Orbit

View from above orbital plane
View from above orbital plane
View from above satellite
View from above satellite

Ground track
Ground track

The orbit data is extracted from the following two-line orbital elements,

1 15592U 85020A   16208.29878732  .00001512  00000-0  55366-4 0  9998
2 15592  82.5393 285.5125 0012698 245.8170 114.1742 15.27161647714535
Epoch (UTC): 26 July 2016 07:10:15
Eccentricity: 0.0012698
inclination: 82.5393°
perigee height: 475 km
apogee height: 493 km
right ascension of ascending node: 285.5125°
argument of perigee: 245.8170°
revolutions per day: 15.27161647
mean anomaly at epoch: 114.1742°
orbit number at epoch: 71453

The dashed part of the orbit path shows where the satellite is in the earth's shadow,  

DLR